This is the latest recevied weather packets stored in our database for station/object KM4CNW. If no packets are shown the sender has not sent any weather packets the latest 10 day(s).
| Time | Temp. | Humidity | Pressure | Rain* | Wind** | Luminosity | Snow |
|---|---|---|---|---|---|---|---|
| 1777812166 | 9.44° C | 63% | 1014 hPa | 0 mm | - | 47 W/m² | - |
| 1777811864 | 8.89° C | 64% | 1014.1 hPa | 0 mm | - | 31 W/m² | - |
| 1777811563 | 8.33° C | 68% | 1014 hPa | 0 mm | - | 51 W/m² | - |
| 1777811258 | 7.78° C | 70% | 1014.1 hPa | 0 mm | - | 43 W/m² | - |
| 1777810956 | 7.78° C | 73% | 1013.9 hPa | 0 mm | - | 27 W/m² | - |
| 1777810652 | 7.22° C | 74% | 1014.1 hPa | 0 mm | - | 26 W/m² | - |
| 1777810349 | 6.67° C | 78% | 1014 hPa | 0 mm | - | 26 W/m² | - |
| 1777810045 | 5.56° C | 80% | 1013.9 hPa | 0 mm | - | 25 W/m² | - |
| 1777809743 | 5.56° C | 83% | 1013.8 hPa | 0 mm | - | 25 W/m² | - |
| 1777809440 | 4.44° C | 86% | 1014.2 hPa | 0 mm | - | 24 W/m² | - |
| 1777809138 | 4.44° C | 91% | 1013.8 hPa | 0 mm | - | 23 W/m² | - |
| 1777808835 | 3.89° C | 93% | 1013.9 hPa | 0 mm | - | 22 W/m² | - |
| 1777808532 | 3.33° C | 93% | 1013.8 hPa | 0 mm | - | 22 W/m² | - |
| 1777808229 | 3.33° C | 93% | 1013.8 hPa | 0 mm | - | 21 W/m² | - |
| 1777807928 | 2.78° C | 92% | 1013.6 hPa | 0 mm | - | 20 W/m² | - |
| 1777807625 | 2.78° C | 92% | 1013.7 hPa | 0 mm | - | 19 W/m² | - |
| 1777807322 | 2.78° C | 92% | 1013.4 hPa | 0 mm | - | 18 W/m² | - |
| 1777807018 | 2.78° C | 93% | 1013.4 hPa | 0 mm | - | 17 W/m² | - |
| 1777806715 | 2.78° C | 93% | 1013.4 hPa | 0 mm | - | 16 W/m² | - |
| 1777806410 | 2.78° C | 93% | 1013.4 hPa | 0 mm | - | 14 W/m² | - |
| 1777806108 | 2.22° C | 93% | 1013.3 hPa | 0 mm | - | 13 W/m² | - |
| 1777805804 | 2.22° C | 93% | 1013.4 hPa | 0 mm | - | 11 W/m² | - |
| 1777805501 | 2.22° C | 93% | 1013.1 hPa | 0 mm | - | 9 W/m² | - |
| 1777805199 | 2.22° C | 93% | 1012.9 hPa | 0 mm | - | 8 W/m² | - |
| 1777804897 | 2.22° C | 93% | 1013.1 hPa | 0 mm | - | 6 W/m² | - |
* Rain latest hour (hover to see other rain measurements)
** Current wind speed in m/s (hover to see current wind gust speed)